| time (UTC) | temp F | wind direction | speed knots | gust knots | rain 1hr in | rain 24hr in | rain mn in | humidity % | barometer mb |
| 20260508100516 | 41 | 270 | 1.7 | 3.5 | 0.00 | 0.01 | 0.00 | 67 | 1007.1 |
| 20260508095516 | 41 | 270 | 1.7 | 2.6 | 0.00 | 0.01 | 0.00 | 67 | 1007.1 |
| 20260508094536 | 41 | 270 | 2.6 | 2.6 | 0.00 | 0.01 | 0.00 | 66 | 1006.9 |
| 20260508093558 | 41 | 270 | 1.7 | 2.6 | 0.00 | 0.01 | 0.00 | 66 | 1006.8 |
| 20260508092516 | 41 | 270 | 1.7 | 1.7 | 0.00 | 0.01 | 0.00 | 66 | 1006.4 |
| 20260508091516 | 41 | 270 | 0.9 | 1.7 | 0.00 | 0.01 | 0.00 | 66 | 1006.4 |
| 20260508090516 | 42 | 270 | 1.7 | 2.6 | 0.00 | 0.01 | 0.00 | 64 | 1006.3 |
| 20260508085516 | 42 | 270 | 1.7 | 2.6 | 0.00 | 0.01 | 0.00 | 63 | 1006.3 |
| 20260508084516 | 43 | 270 | 1.7 | 2.6 | 0.00 | 0.01 | 0.00 | 61 | 1006.3 |
| 20260508083515 | 43 | 293 | 0.9 | 1.7 | 0.00 | 0.01 | 0.00 | 60 | 1006.2 |
| 20260508082521 | 43 | 0.0 | 1.7 | 0.00 | 0.01 | 0.00 | 62 | 1006.1 | |
| 20260508081535 | 43 | 270 | 0.9 | 1.7 | 0.00 | 0.01 | 0.00 | 62 | 1006.1 |
| 20260508080556 | 43 | 270 | 1.7 | 3.5 | 0.00 | 0.01 | 0.00 | 60 | 1005.9 |
| 20260508075535 | 43 | 270 | 0.9 | 3.5 | 0.00 | 0.01 | 0.00 | 59 | 1005.9 |
| 20260508074515 | 44 | 293 | 0.9 | 5.2 | 0.00 | 0.01 | 0.00 | 58 | 1005.8 |
| 20260508073515 | 44 | 315 | 0.9 | 2.6 | 0.00 | 0.01 | 0.00 | 59 | 1005.8 |
| 20260508072515 | 44 | 270 | 1.7 | 4.3 | 0.00 | 0.01 | 0.00 | 59 | 1005.8 |
| 20260508071518 | 44 | 248 | 2.6 | 5.2 | 0.00 | 0.01 | 0.00 | 58 | 1005.8 |
| 20260508070517 | 44 | 248 | 2.6 | 5.2 | 0.00 | 0.01 | 0.00 | 58 | 1005.7 |
| 20260508065538 | 44 | 248 | 1.7 | 5.2 | 0.00 | 0.01 | 0.00 | 58 | 1005.8 |
| 20260508064539 | 44 | 270 | 1.7 | 4.3 | 0.00 | 0.01 | 0.00 | 57 | 1005.9 |
| 20260508063517 | 44 | 270 | 1.7 | 6.1 | 0.00 | 0.01 | 0.00 | 58 | 1005.9 |
| 20260508062517 | 44 | 270 | 2.6 | 4.3 | 0.00 | 0.01 | 0.00 | 57 | 1005.8 |
| 20260508061517 | 45 | 270 | 1.7 | 6.1 | 0.00 | 0.01 | 0.00 | 57 | 1005.9 |
| 20260508060517 | 45 | 270 | 1.7 | 5.2 | 0.00 | 0.01 | 0.00 | 57 | 1006.1 |
| 20260508055517 | 44 | 270 | 0.9 | 2.6 | 0.00 | 0.02 | 0.00 | 57 | 1006.2 |
| 20260508054517 | 44 | 248 | 1.7 | 4.3 | 0.00 | 0.02 | 0.00 | 58 | 1006.2 |
| 20260508053517 | 44 | 270 | 1.7 | 4.3 | 0.00 | 0.03 | 0.00 | 59 | 1006.3 |
| 20260508052517 | 44 | 270 | 1.7 | 3.5 | 0.00 | 0.03 | 0.00 | 59 | 1006.5 |
| 20260508051537 | 44 | 270 | 1.7 | 3.5 | 0.00 | 0.04 | 0.00 | 59 | 1006.6 |
| 20260508050517 | 44 | 293 | 1.7 | 3.5 | 0.00 | 0.05 | 0.00 | 60 | 1006.6 |
| 20260508045517 | 43 | 270 | 2.6 | 3.5 | 0.00 | 0.06 | 0.00 | 63 | 1006.7 |
| 20260508044517 | 45 | 270 | 2.6 | 4.3 | 0.00 | 0.10 | 0.00 | 56 | 1006.9 |
| 20260508043517 | 45 | 293 | 0.9 | 2.6 | 0.00 | 0.14 | 0.00 | 55 | 1006.9 |
| 20260508042517 | 44 | 270 | 0.9 | 2.6 | 0.00 | 0.14 | 0.00 | 57 | 1006.9 |
| 20260508041517 | 44 | 293 | 0.9 | 1.7 | 0.00 | 0.15 | 0.00 | 59 | 1006.8 |
| 20260508040517 | 44 | 270 | 1.7 | 2.6 | 0.00 | 0.16 | 0.00 | 62 | 1006.7 |
| 20260508035536 | 45 | 270 | 1.7 | 3.5 | 0.00 | 0.17 | 0.16 | 54 | 1006.9 |
| 20260508034517 | 46 | 248 | 0.9 | 2.6 | 0.00 | 0.17 | 0.16 | 52 | 1007.0 |
| 20260508033516 | 46 | 270 | 0.9 | 2.6 | 0.00 | 0.17 | 0.16 | 53 | 1007.1 |
| 20260508032557 | 46 | 270 | 0.9 | 2.6 | 0.00 | 0.17 | 0.16 | 54 | 1007.0 |
| 20260508031517 | 47 | 293 | 0.9 | 1.7 | 0.00 | 0.18 | 0.16 | 52 | 1007.0 |
| 20260508030516 | 47 | 293 | 0.9 | 2.6 | 0.00 | 0.18 | 0.16 | 51 | 1007.1 |
| 20260508025516 | 47 | 338 | 1.7 | 4.3 | 0.00 | 0.19 | 0.16 | 51 | 1007.0 |
| 20260508024516 | 47 | 338 | 1.7 | 3.5 | 0.00 | 0.19 | 0.16 | 53 | 1006.7 |
| 20260508023516 | 48 | 315 | 1.7 | 3.5 | 0.00 | 0.19 | 0.16 | 54 | 1006.8 |
| 20260508022517 | 48 | 315 | 0.9 | 2.6 | 0.00 | 0.19 | 0.16 | 52 | 1006.7 |
| 20260508021517 | 48 | 338 | 1.7 | 3.5 | 0.00 | 0.19 | 0.16 | 51 | 1006.6 |
| 20260508020516 | 49 | 338 | 0.9 | 2.6 | 0.00 | 0.20 | 0.16 | 51 | 1006.7 |
| 20260508015516 | 49 | 270 | 0.9 | 5.2 | 0.00 | 0.20 | 0.16 | 51 | 1006.5 |
| 20260508014516 | 49 | 338 | 0.9 | 2.6 | 0.00 | 0.20 | 0.16 | 51 | 1006.5 |
| 20260508013537 | 50 | 338 | 1.7 | 3.5 | 0.00 | 0.21 | 0.16 | 50 | 1006.5 |
| 20260508012536 | 50 | 338 | 1.7 | 2.6 | 0.00 | 0.21 | 0.16 | 50 | 1006.4 |
| 20260508011516 | 51 | 338 | 1.7 | 5.2 | 0.00 | 0.21 | 0.16 | 49 | 1006.3 |
| 20260508010516 | 51 | 338 | 3.5 | 6.1 | 0.00 | 0.22 | 0.16 | 48 | 1006.2 |
| 20260508005516 | 52 | 338 | 2.6 | 7.8 | 0.00 | 0.23 | 0.16 | 48 | 1005.9 |
| 20260508004538 | 52 | 338 | 1.7 | 4.3 | 0.00 | 0.24 | 0.16 | 47 | 1005.9 |
| 20260508003517 | 53 | 338 | 2.6 | 9.6 | 0.00 | 0.24 | 0.16 | 45 | 1005.6 |
| 20260508002521 | 53 | 315 | 1.7 | 3.5 | 0.00 | 0.24 | 0.16 | 45 | 1005.5 |
| 20260508001537 | 53 | 315 | 0.9 | 3.5 | 0.00 | 0.24 | 0.16 | 45 | 1005.3 |
| 20260508000519 | 54 | 293 | 1.7 | 5.2 | 0.00 | 0.24 | 0.16 | 44 | 1005.1 |
| 20260507235516 | 54 | 315 | 1.7 | 3.5 | 0.00 | 0.24 | 0.16 | 43 | 1005.0 |
| 20260507234516 | 55 | 270 | 1.7 | 5.2 | 0.00 | 0.24 | 0.16 | 42 | 1005.0 |
| 20260507233516 | 56 | 0 | 2.6 | 7.8 | 0.00 | 0.24 | 0.16 | 40 | 1004.8 |
| 20260507232516 | 57 | 270 | 2.6 | 5.2 | 0.00 | 0.24 | 0.16 | 39 | 1004.6 |
| 20260507231516 | 57 | 293 | 2.6 | 10.4 | 0.00 | 0.24 | 0.16 | 39 | 1004.3 |
| 20260507230516 | 58 | 315 | 1.7 | 4.3 | 0.00 | 0.24 | 0.16 | 39 | 1004.2 |
| 20260507225516 | 58 | 248 | 3.5 | 10.4 | 0.00 | 0.25 | 0.16 | 38 | 1004.0 |
| 20260507224516 | 59 | 315 | 3.5 | 7.8 | 0.00 | 0.25 | 0.16 | 38 | 1003.9 |
| 20260507223516 | 60 | 338 | 2.6 | 6.1 | 0.00 | 0.26 | 0.16 | 36 | 1003.8 |
| 20260507222536 | 60 | 338 | 1.7 | 8.7 | 0.00 | 0.26 | 0.16 | 36 | 1003.6 |
| 20260507221516 | 59 | 270 | 3.5 | 9.6 | 0.00 | 0.27 | 0.16 | 35 | 1003.6 |
| 20260507220516 | 61 | 248 | 4.3 | 14.8 | 0.00 | 0.29 | 0.16 | 33 | 1003.6 |
| 20260507215517 | 61 | 248 | 3.5 | 7.8 | 0.00 | 0.32 | 0.16 | 34 | 1003.4 |
| 20260507214516 | 61 | 270 | 3.5 | 11.3 | 0.00 | 0.35 | 0.16 | 34 | 1003.4 |
| 20260507213516 | 61 | 248 | 3.5 | 8.7 | 0.00 | 0.39 | 0.16 | 33 | 1003.5 |
| 20260507212516 | 62 | 248 | 4.3 | 9.6 | 0.00 | 0.42 | 0.16 | 32 | 1003.3 |
| 20260507211515 | 62 | 248 | 2.6 | 6.1 | 0.00 | 0.44 | 0.16 | 34 | 1003.3 |
| 20260507210515 | 63 | 225 | 2.6 | 5.2 | 0.00 | 0.46 | 0.16 | 38 | 1003.2 |
| 20260507205536 | 63 | 248 | 4.3 | 9.6 | 0.00 | 0.47 | 0.16 | 37 | 1003.1 |
| 20260507204537 | 62 | 248 | 4.3 | 7.8 | 0.00 | 0.48 | 0.16 | 41 | 1003.0 |
| 20260507203516 | 62 | 248 | 4.3 | 8.7 | 0.00 | 0.50 | 0.16 | 44 | 1002.9 |
| 20260507202516 | 62 | 248 | 3.5 | 8.7 | 0.00 | 0.51 | 0.16 | 48 | 1003.0 |
| 20260507201518 | 62 | 248 | 4.3 | 10.4 | 0.00 | 0.56 | 0.16 | 48 | 1003.0 |
| 20260507200517 | 61 | 248 | 3.5 | 7.0 | 0.00 | 0.57 | 0.16 | 51 | 1002.9 |
| 20260507195517 | 62 | 225 | 3.5 | 5.2 | 0.00 | 0.58 | 0.16 | 52 | 1003.0 |
| 20260507194517 | 61 | 248 | 3.5 | 7.8 | 0.00 | 0.59 | 0.16 | 54 | 1003.1 |
| 20260507193517 | 62 | 225 | 2.6 | 5.2 | 0.00 | 0.59 | 0.16 | 50 | 1003.2 |
| 20260507192517 | 60 | 225 | 3.5 | 6.1 | 0.00 | 0.60 | 0.16 | 58 | 1003.2 |
| 20260507191517 | 60 | 225 | 2.6 | 3.5 | 0.00 | 0.60 | 0.16 | 57 | 1003.2 |
| 20260507190517 | 60 | 225 | 2.6 | 5.2 | 0.00 | 0.60 | 0.16 | 53 | 1003.2 |
| 20260507185517 | 60 | 225 | 1.7 | 3.5 | 0.00 | 0.60 | 0.16 | 56 | 1003.3 |
| 20260507184517 | 61 | 225 | 2.6 | 6.1 | 0.00 | 0.60 | 0.16 | 54 | 1003.3 |
| 20260507183517 | 61 | 180 | 4.3 | 6.1 | 0.00 | 0.60 | 0.16 | 56 | 1003.4 |
| 20260507182537 | 59 | 203 | 2.6 | 5.2 | 0.00 | 0.60 | 0.16 | 59 | 1003.5 |
| 20260507181637 | 59 | 225 | 3.5 | 8.7 | 0.00 | 0.60 | 0.16 | 59 | 1003.7 |
| 20260507180522 | 60 | 270 | 1.7 | 3.5 | 0.00 | 0.60 | 0.16 | 53 | 1003.5 |
| 20260507175517 | 60 | 225 | 2.6 | 4.3 | 0.00 | 0.60 | 0.16 | 53 | 1003.7 |
| 20260507174517 | 59 | 225 | 1.7 | 4.3 | 0.00 | 0.60 | 0.16 | 54 | 1003.7 |
| 20260507173517 | 60 | 248 | 1.7 | 4.3 | 0.00 | 0.60 | 0.16 | 53 | 1003.7 |
| 20260507172517 | 60 | 248 | 1.7 | 4.3 | 0.00 | 0.60 | 0.16 | 53 | 1003.8 |
| 20260507171517 | 61 | 225 | 3.5 | 6.1 | 0.00 | 0.60 | 0.16 | 48 | 1003.9 |
| 20260507170520 | 62 | 225 | 2.6 | 5.2 | 0.00 | 0.60 | 0.16 | 51 | 1003.9 |
| 20260507165518 | 63 | 225 | 2.6 | 5.2 | 0.00 | 0.60 | 0.16 | 50 | 1003.9 |
| 20260507164519 | 63 | 248 | 2.6 | 5.2 | 0.00 | 0.60 | 0.16 | 52 | 1004.1 |
| 20260507163517 | 59 | 248 | 2.6 | 5.2 | 0.00 | 0.60 | 0.16 | 55 | 1004.2 |
| 20260507162517 | 60 | 248 | 3.5 | 7.0 | 0.00 | 0.60 | 0.16 | 53 | 1004.4 |
| 20260507161517 | 60 | 248 | 3.5 | 5.2 | 0.00 | 0.60 | 0.16 | 55 | 1004.5 |
| 20260507160517 | 60 | 225 | 2.6 | 5.2 | 0.00 | 0.60 | 0.16 | 57 | 1004.6 |
| 20260507155517 | 59 | 248 | 2.6 | 5.2 | 0.00 | 0.60 | 0.16 | 58 | 1004.8 |
| 20260507154517 | 61 | 338 | 1.7 | 5.2 | 0.00 | 0.60 | 0.16 | 55 | 1004.9 |
| 20260507153517 | 60 | 338 | 2.6 | 5.2 | 0.00 | 0.60 | 0.16 | 53 | 1005.0 |
| 20260507152517 | 60 | 248 | 2.6 | 4.3 | 0.00 | 0.60 | 0.16 | 59 | 1005.0 |
| 20260507151517 | 59 | 270 | 1.7 | 4.3 | 0.00 | 0.60 | 0.16 | 63 | 1005.1 |
| 20260507150517 | 58 | 225 | 2.6 | 3.5 | 0.00 | 0.60 | 0.16 | 65 | 1005.1 |
| 20260507145536 | 58 | 338 | 0.9 | 2.6 | 0.00 | 0.60 | 0.16 | 66 | 1005.2 |
| 20260507144517 | 57 | 315 | 1.7 | 3.5 | 0.00 | 0.60 | 0.16 | 66 | 1005.4 |
| 20260507143517 | 56 | 338 | 2.6 | 4.3 | 0.00 | 0.60 | 0.16 | 68 | 1005.4 |
| 20260507142539 | 56 | 315 | 1.7 | 5.2 | 0.01 | 0.60 | 0.16 | 67 | 1005.4 |
| 20260507141516 | 56 | 270 | 0.9 | 4.3 | 0.01 | 0.60 | 0.16 | 68 | 1005.6 |
| 20260507140516 | 55 | 315 | 1.7 | 3.5 | 0.01 | 0.60 | 0.16 | 72 | 1005.8 |
| 20260507135516 | 54 | 270 | 1.7 | 4.3 | 0.01 | 0.60 | 0.16 | 71 | 1005.8 |
| 20260507134517 | 54 | 270 | 1.7 | 4.3 | 0.01 | 0.60 | 0.16 | 73 | 1005.8 |
| 20260507133516 | 54 | 270 | 1.7 | 3.5 | 0.01 | 0.60 | 0.16 | 76 | 1005.9 |
| 20260507132516 | 53 | 248 | 1.7 | 3.5 | 0.00 | 0.59 | 0.15 | 74 | 1005.8 |
| 20260507131516 | 52 | 248 | 1.7 | 3.5 | 0.00 | 0.59 | 0.15 | 76 | 1006.0 |
| 20260507130617 | 52 | 338 | 1.7 | 4.3 | 0.00 | 0.59 | 0.15 | 78 | 1006.2 |
| 20260507125516 | 51 | 293 | 1.7 | 6.1 | 0.00 | 0.59 | 0.15 | 78 | 1006.3 |
| 20260507124543 | 51 | 248 | 1.7 | 3.5 | 0.00 | 0.59 | 0.15 | 79 | 1006.0 |
| 20260507123516 | 50 | 338 | 1.7 | 5.2 | 0.00 | 0.59 | 0.15 | 79 | 1006.0 |
| 20260507122536 | 50 | 270 | 1.7 | 4.3 | 0.00 | 0.59 | 0.15 | 83 | 1006.1 |
| 20260507121516 | 49 | 248 | 2.6 | 6.1 | 0.00 | 0.59 | 0.15 | 83 | 1006.1 |
| 20260507120536 | 49 | 270 | 1.7 | 4.3 | 0.00 | 0.59 | 0.15 | 84 | 1006.0 |
| 20260507115516 | 48 | 293 | 0.9 | 2.6 | 0.00 | 0.59 | 0.15 | 88 | 1006.0 |
| 20260507114516 | 48 | 293 | 0.9 | 4.3 | 0.00 | 0.59 | 0.15 | 90 | 1006.2 |
| 20260507113516 | 47 | 293 | 0.9 | 1.7 | 0.00 | 0.59 | 0.15 | 92 | 1006.2 |
| 20260507112516 | 47 | 315 | 0.9 | 0.9 | 0.00 | 0.59 | 0.15 | 91 | 1006.6 |
| 20260507111516 | 47 | 315 | 0.9 | 1.7 | 0.00 | 0.59 | 0.15 | 92 | 1006.1 |
| 20260507110516 | 47 | 0.0 | 1.7 | 0.00 | 0.59 | 0.15 | 93 | 1006.8 | |
| 20260507105516 | 46 | 270 | 1.7 | 3.5 | 0.00 | 0.59 | 0.15 | 93 | 1006.4 |
| 20260507104521 | 46 | 248 | 1.7 | 2.6 | 0.00 | 0.59 | 0.15 | 93 | 1006.8 |
| 20260507103516 | 46 | 270 | 0.9 | 1.7 | 0.00 | 0.59 | 0.15 | 94 | 1006.2 |
| 20260507102516 | 46 | 270 | 0.9 | 2.6 | 0.00 | 0.59 | 0.15 | 94 | 1006.2 |
| 20260507101516 | 46 | 270 | 1.7 | 2.6 | 0.00 | 0.59 | 0.15 | 95 | 1006.4 |